This is the latest recevied weather packets stored in our database for station/object OM8AGG-15. If no packets are shown the sender has not sent any weather packets the latest 10 day(s).
| Time | Temp. | Humidity | Pressure | Rain* | Wind** | Luminosity | Snow |
|---|---|---|---|---|---|---|---|
| 1777651748 | 15° C | 35% | 1023.3 hPa | - | - | - | - |
| 1777650848 | 15° C | 35% | 1023.4 hPa | - | - | - | - |
| 1777649948 | 15° C | 35% | 1023.5 hPa | - | - | - | - |
| 1777649047 | 15° C | 35% | 1023.6 hPa | - | - | - | - |
| 1777647248 | 15.56° C | 34% | 1023.8 hPa | - | - | - | - |
| 1777644547 | 15° C | 34% | 1023.9 hPa | - | - | - | - |
| 1777642747 | 14.44° C | 34% | 1024 hPa | - | - | - | - |
| 1777641847 | 15° C | 34% | 1024.1 hPa | - | - | - | - |
| 1777640951 | 14.44° C | 35% | 1024.1 hPa | - | - | - | - |
| 1777639146 | 14.44° C | 34% | 1024.1 hPa | - | - | - | - |
| 1777637346 | 15.56° C | 33% | 1024.5 hPa | - | - | - | - |
| 1777636450 | 15.56° C | 33% | 1024.7 hPa | - | - | - | - |
| 1777635546 | 14.44° C | 35% | 1024.7 hPa | - | - | - | - |
| 1777634652 | 15° C | 35% | 1024.9 hPa | - | - | - | - |
| 1777632845 | 13.89° C | 36% | 1025.2 hPa | - | - | - | - |
| 1777631945 | 13.89° C | 34% | 1025.3 hPa | - | - | - | - |
| 1777631045 | 13.33° C | 34% | 1025.4 hPa | - | - | - | - |
| 1777630149 | 12.78° C | 34% | 1025.5 hPa | - | - | - | - |
| 1777629244 | 12.78° C | 34% | 1025.7 hPa | - | - | - | - |
| 1777628344 | 12.22° C | 34% | 1025.8 hPa | - | - | - | - |
| 1777627444 | 12.22° C | 33% | 1025.9 hPa | - | - | - | - |
| 1777626544 | 11.67° C | 31% | 1026.1 hPa | - | - | - | - |
| 1777623847 | 11.67° C | 27% | 1026.3 hPa | - | - | - | - |
| 1777622947 | 11.11° C | 26% | 1026.3 hPa | - | - | - | - |
| 1777622043 | 10.56° C | 25% | 1026.4 hPa | - | - | - | - |
* Rain since midnight (hover to see other rain measurements)
** Current wind speed in m/s (hover to see current wind gust speed)